EW8754 Weather Reports


time (UTC)temp
C
wind
direction
speed
KPH
gust
KPH
rain 1hr
cm
rain 24hr
cm
rain mn
cm
humidity
%
barometer
mb
20260503000640 8 253 0.0 1.6 0.00 0.28 0.28 91 1007.7
20260503000157 8 253 0.0 1.6 0.00 0.28 0.28 91 1007.7
20260502235710 8 253 0.0 1.6 0.00 0.28 0.28 91 1007.6
20260502235141 8 253 0.0 1.6 0.00 0.28 0.28 91 1007.6
20260502234635 8 225 0.0 0.0 0.00 0.28 0.28 91 1007.6
20260502234128 8 224 0.0 0.0 0.00 0.28 0.28 91 1007.6
20260502234102 9 223 0.0 0.0 0.00 0.28 0.28 91 1007.6
20260502233659 9 224 0.0 0.0 0.00 0.28 0.28 91 1007.5
20260502232632 9 223 0.0 0.0 0.00 0.28 0.28 91 1007.6
20260502232131 9 223 0.0 0.0 0.00 0.28 0.28 91 1007.6
20260502231622 9 223 0.0 0.0 0.00 0.28 0.28 91 1007.6
20260502231409 9 223 0.0 0.0 0.00 0.28 0.28 91 1007.5
20260502230613 9 223 0.0 0.0 0.00 0.28 0.28 91 1007.5
20260502230128 9 223 0.0 0.0 0.00 0.28 0.28 90 1007.5
20260502225612 9 223 0.0 0.0 0.00 0.28 0.28 90 1007.5
20260502225114 9 223 0.0 0.0 0.00 0.28 0.28 90 1007.5
20260502224610 9 223 0.0 0.0 0.00 0.28 0.28 90 1007.5
20260502224113 9 223 0.0 0.0 0.00 0.28 0.28 90 1007.5
20260502223608 9 223 0.0 3.2 0.00 0.28 0.28 90 1007.4
20260502223109 9 223 0.0 3.2 0.00 0.28 0.28 90 1007.4
20260502222616 9 223 0.0 3.2 0.00 0.28 0.28 90 1007.3
20260502222106 9 223 1.6 3.2 0.03 0.28 0.28 90 1007.5
20260502221826 9 222 1.6 3.2 0.03 0.28 0.28 89 1007.4
20260502221322 9 115 1.6 3.2 0.03 0.28 0.28 89 1007.5
20260502220625 9 111 0.0 3.2 0.05 0.28 0.28 89 1007.6
20260502220106 9 110 0.0 1.6 0.05 0.28 0.28 89 1007.6
20260502215605 9 110 0.0 1.6 0.08 0.28 0.28 89 1007.6
20260502215109 9 110 0.0 1.6 0.08 0.28 0.28 88 1007.7
20260502214556 9 110 0.0 1.6 0.08 0.28 0.28 88 1007.7
20260502214327 9 110 0.0 1.6 0.08 0.28 0.28 88 1007.6
20260502213558 9 110 0.0 3.2 0.08 0.28 0.28 88 1007.6
20260502213049 9 110 0.0 3.2 0.08 0.28 0.28 87 1007.5
20260502212547 9 109 0.0 3.2 0.05 0.25 0.25 86 1007.7
20260502212047 9 109 0.0 6.4 0.05 0.25 0.25 86 1007.7
20260502211724 10 42 1.6 6.4 0.03 0.23 0.23 82 1007.7
20260502211621 9 110 1.6 6.4 0.05 0.25 0.25 85 1007.7
20260502211240 9 40 1.6 6.4 0.05 0.25 0.23 84 1007.7
20260502210043 10 41 1.6 14.5 0.03 0.23 0.23 81 1007.6
20260502205541 10 28 3.2 14.5 0.00 0.20 0.20 79 1007.7
20260502205307 11 27 4.8 14.5 0.00 0.20 0.20 73 1007.6
20260502205259 12 0 4.8 11.3 0.00 0.20 0.20 69 1007.5
20260502205037 10 92 4.8 14.5 0.00 0.20 0.20 77 1007.7
20260502204649 11 14 4.8 14.5 0.00 0.20 0.20 75 1007.6
20260502203023 12 269 4.8 12.9 0.00 0.20 0.20 64 1007.3
20260502202521 12 306 3.2 12.9 0.00 0.20 0.20 65 1007.2
20260502202026 12 279 4.8 12.9 0.00 0.20 0.20 63 1007.3
20260502201518 12 212 4.8 12.9 0.00 0.20 0.20 62 1007.3
20260502201233 13 266 4.8 17.7 0.00 0.20 0.20 61 1007.4
20260502201104 13 213 4.8 17.7 0.00 0.20 0.20 61 1007.4
20260502200019 13 260 4.8 19.3 0.00 0.20 0.20 60 1007.4
20260502195536 13 282 6.4 19.3 0.00 0.20 0.20 59 1007.3
20260502195050 12 321 6.4 22.5 0.00 0.20 0.20 59 1007.4
20260502194515 12 202 8.0 22.5 0.00 0.20 0.20 58 1007.4
20260502194333 12 289 4.8 16.1 0.00 0.20 0.20 60 1007.5
20260502193007 12 259 6.4 16.1 0.00 0.20 0.20 59 1007.6
20260502192501 12 245 6.4 16.1 0.00 0.20 0.20 60 1007.8
20260502191947 12 295 6.4 19.3 0.00 0.20 0.20 62 1007.9
20260502191650 12 261 6.4 19.3 0.00 0.20 0.20 63 1008.0
20260502191520 12 284 4.8 19.3 0.00 0.20 0.20 59 1007.9
20260502190449 12 268 6.4 19.3 0.00 0.20 0.20 64 1008.1
20260502190232 12 283 6.4 22.5 0.00 0.20 0.20 69 1008.0
20260502185436 11 277 8.0 22.5 0.00 0.20 0.20 67 1008.0
20260502185243 12 214 8.0 17.7 0.00 0.20 0.20 69 1008.0
20260502185010 12 265 8.0 19.3 0.00 0.20 0.20 68 1008.0
20260502183940 12 279 6.4 22.5 0.00 0.20 0.20 68 1007.9
20260502183438 12 202 4.8 22.5 0.00 0.20 0.20 70 1008.1
20260502183228 12 284 6.4 24.1 0.00 0.20 0.20 72 1008.0
20260502183018 12 317 6.4 24.1 0.00 0.20 0.20 74 1008.0
20260502181941 12 204 4.8 20.9 0.00 0.20 0.20 73 1008.0
20260502181444 12 277 6.4 14.5 0.00 0.20 0.20 75 1008.0
20260502180932 12 259 6.4 16.1 0.00 0.20 0.20 75 1008.1
20260502180839 12 256 6.4 16.1 0.00 0.20 0.20 73 1008.1
20260502170417 11 222 4.8 20.9 0.00 0.20 0.20 65 1008.5
20260502170232 11 274 6.4 19.3 0.00 0.20 0.20 64 1008.6
20260502170225 11 221 6.4 20.9 0.00 0.20 0.20 65 1008.7
20260502170220 12 302 4.8 20.9 0.00 0.20 0.20 68 1008.7
20260502162430 12 250 4.8 16.1 0.00 0.20 0.20 70 1008.7
20260502161947 11 313 4.8 16.1 0.00 0.20 0.20 70 1008.6
20260502161424 11 283 4.8 14.5 0.00 0.20 0.20 71 1008.8
20260502160911 11 286 4.8 12.9 0.00 0.20 0.20 73 1008.8
20260502160428 11 323 1.6 8.0 0.00 0.20 0.20 77 1008.8
20260502151917 10 247 1.6 9.7 0.00 0.20 0.20 87 1009.2
20260502151409 10 202 1.6 9.7 0.00 0.20 0.20 87 1009.1
20260502150909 10 193 1.6 9.7 0.00 0.20 0.20 88 1009.1
20260502150359 10 269 1.6 9.7 0.00 0.20 0.20 88 1009.8
20260502130343 8 283 1.6 6.4 0.13 0.15 0.13 88 1010.5
20260502123319 8 359 1.6 6.4 0.03 0.03 0.03 85 1010.3
20260502123051 8 6 3.2 6.4 0.03 0.03 0.03 85 1010.4
20260502123037 8 8 3.2 6.4 0.03 0.03 0.03 85 1010.2
20260502122851 8 353 3.2 6.4 0.03 0.03 0.03 85 1010.3
20260502121801 8 22 1.6 6.4 0.03 0.03 0.03 85 1010.1
20260502120931 8 340 0.0 3.2 0.03 0.03 0.03 85 1009.6
20260502120855 8 24 1.6 4.8 0.03 0.03 0.03 86 1010.0
20260502120451 8 340 0.0 3.2 0.03 0.03 0.03 85 1009.9
20260502115821 8 340 0.0 3.2 0.03 0.03 0.03 85 1009.6
20260502115313 8 340 1.6 4.8 0.03 0.03 0.03 85 1009.6
20260502114808 8 340 1.6 4.8 0.03 0.03 0.03 85 1009.2
20260502114306 8 50 1.6 4.8 0.03 0.03 0.03 85 1009.1
20260502114151 8 21 1.6 4.8 0.00 0.00 0.00 85 1009.1
20260502113438 8 265 1.6 3.2 0.00 0.00 0.00 85 1009.6
20260502113309 8 29 1.6 4.8 0.00 0.00 0.00 85 1009.2
20260502113210 8 42 1.6 4.8 0.00 0.00 0.00 84 1009.2
20260502112027 8 265 0.0 4.8 0.00 0.00 0.00 84 1009.6
20260502111853 8 265 0.0 3.2 0.00 0.00 0.00 84 1009.6
20260502111507 8 265 0.0 4.8 0.00 0.00 0.00 84 1009.5
20260502111014 8 265 0.0 6.4 0.00 0.00 0.00 84 1009.4
20260502105809 8 262 0.0 6.4 0.00 0.00 0.00 84 1009.4
20260502105306 8 231 0.0 4.8 0.00 0.00 0.00 84 1009.2
20260502104802 8 231 0.0 4.8 0.00 0.00 0.00 83 1009.1
20260502104506 8 225 0.0 0.0 0.00 0.00 0.00 82 1009.1
20260502104345 8 231 0.0 4.8 0.00 0.00 0.00 82 1009.1
20260502103309 8 223 0.0 0.0 0.00 0.00 0.00 82 1008.9
20260502102809 8 223 0.0 3.2 0.00 0.00 0.00 82 1008.9
20260502102325 8 220 0.0 3.2 0.00 0.00 0.00 82 1008.9
20260502101826 8 220 0.0 3.2 0.00 0.00 0.00 82 1008.9
20260502101300 8 216 0.0 3.2 0.00 0.00 0.00 82 1008.9
20260502100757 8 215 0.0 0.0 0.00 0.00 0.00 82 1008.8
20260502100239 8 215 0.0 1.6 0.00 0.00 0.00 82 1008.7
20260502091303 8 75 0.0 1.6 0.00 0.00 0.00 79 1008.4
20260502090743 8 75 0.0 4.8 0.00 0.00 0.00 78 1008.4
20260502090237 8 75 0.0 4.8 0.00 0.00 0.00 77 1008.4
20260502071209 9 310 1.6 4.8 0.00 0.00 0.00 73 1008.8
20260502070710 9 262 1.6 3.2 0.00 0.00 0.00 73 1008.7
20260502070217 9 268 1.6 3.2 0.00 0.00 0.00 72 1008.8
20260502065943 9 31 1.6 8.0 0.00 0.00 0.00 72 1008.8
20260502065934 9 33 1.6 8.0 0.00 0.00 0.00 71 1008.7
20260502065754 9 0 1.6 8.0 0.00 0.00 0.00 73 1008.9
20260502064221 9 216 3.2 8.0 0.00 0.00 0.00 71 1008.9
20260502063706 9 8 3.2 6.4 0.00 0.00 0.00 70 1008.9
20260502063407 9 0 1.6 6.4 0.00 0.00 0.00 70 1009.4
20260502062916 9 314 1.6 4.8 0.00 0.00 0.00 70 1009.2
20260502061718 9 319 0.0 4.8 0.00 0.00 0.00 69 1008.8
20260502061303 9 239 1.6 9.7 0.00 0.00 0.00 68 1008.8
20260502061222 9 237 0.0 4.8 0.00 0.00 0.00 69 1008.7
20260502060212 9 302 1.6 9.7 0.00 0.00 0.00 68 1008.9
20260502055710 9 250 3.2 9.7 0.00 0.00 0.00 67 1008.8
20260502055213 9 275 1.6 9.7 0.00 0.00 0.00 67 1008.8
20260502054714 9 273 1.6 4.8 0.00 0.00 0.00 67 1008.8
20260502054205 9 262 1.6 4.8 0.00 0.00 0.00 67 1008.8
20260502053712 9 261 1.6 4.8 0.00 0.00 0.00 66 1008.8
20260502053455 9 289 1.6 9.7 0.00 0.00 0.00 66 1008.9
20260502053220 9 289 1.6 9.7 0.00 0.00 0.00 66 1008.9
20260502052935 9 299 1.6 9.7 0.00 0.00 0.00 66 1009.0
20260502052708 9 299 1.6 9.7 0.00 0.00 0.00 66 1009.0
20260502052519 9 262 1.6 9.7 0.00 0.00 0.00 65 1008.9
20260502052510 9 260 1.6 9.7 0.00 0.00 0.00 65 1008.9
20260502051150 9 287 1.6 6.4 0.00 0.00 0.00 64 1008.9
20260502050659 10 301 1.6 6.4 0.00 0.00 0.00 63 1008.9
20260502050200 10 287 1.6 6.4 0.00 0.00 0.00 63 1009.0
20260502045645 10 281 1.6 6.4 0.00 0.00 0.00 62 1009.0
20260502045451 10 251 0.0 6.4 0.00 0.00 0.00 61 1008.9
20260502044655 10 283 0.0 4.8 0.00 0.00 0.00 61 1008.9
20260502044145 10 284 0.0 4.8 0.00 0.00 0.00 60 1009.0
20260502044005 10 300 1.6 4.8 0.00 0.00 0.00 60 1009.0
20260502043139 10 41 1.6 4.8 0.00 0.00 0.00 59 1008.9
20260502042637 10 21 1.6 6.4 0.00 0.00 0.00 59 1009.1
20260502042139 10 345 1.6 6.4 0.00 0.00 0.00 58 1009.0
20260502041637 10 344 1.6 6.4 0.00 0.00 0.00 58 1009.1
20260502041136 10 342 1.6 6.4 0.00 0.00 0.00 58 1009.2
20260502040635 10 352 1.6 4.8 0.00 0.00 0.00 56 1009.1
20260502040137 10 352 1.6 4.8 0.00 0.00 0.00 56 1009.1
20260502035632 10 3 1.6 8.0 0.00 0.00 0.00 56 1009.1
20260502035132 10 8 1.6 8.0 0.00 0.00 0.00 56 1009.0
20260502034632 10 25 1.6 8.0 0.00 0.00 0.00 55 1009.1
20260502034125 10 21 1.6 8.0 0.00 0.00 0.00 55 1009.2
20260502033618 10 353 1.6 6.4 0.00 0.00 0.00 55 1009.1
20260502033115 10 18 3.2 6.4 0.00 0.00 0.00 54 1009.2
20260502032613 10 283 1.6 4.8 0.00 0.00 0.00 54 1009.4
20260502032451 10 323 1.6 8.0 0.00 0.00 0.00 54 1009.2
20260502031936 10 21 1.6 8.0 0.00 0.00 0.00 54 1009.2
20260502031113 10 25 1.6 9.7 0.00 0.00 0.00 53 1009.1
20260502030613 10 15 1.6 9.7 0.00 0.00 0.00 52 1009.1
20260502030112 10 277 1.6 9.7 0.00 0.00 0.00 52 1009.0
20260502025613 10 279 1.6 9.7 0.00 0.00 0.00 51 1009.0
20260502025115 10 279 1.6 9.7 0.00 0.00 0.00 48 1008.9
20260502024910 10 280 3.2 9.7 0.00 0.00 0.00 50 1009.0
20260502024427 11 321 1.6 4.8 0.00 0.00 0.00 50 1009.0
20260502023609 11 100 0.0 0.0 0.00 0.00 0.00 47 1008.9
20260502023105 11 100 0.0 0.0 0.00 0.00 0.00 44 1008.9
20260502022604 11 100 0.0 0.0 0.00 0.00 0.00 45 1008.8
20260502022103 11 100 0.0 0.0 0.00 0.00 0.00 44 1008.8
20260502021753 10 100 0.0 0.0 0.00 0.00 0.00 44 1008.8
20260502021714 10 100 0.0 0.0 0.00 0.00 0.00 44 1008.8
20260502020614 10 100 0.0 0.0 0.00 0.00 0.00 43 1008.8
20260502015553 10 100 0.0 0.0 0.00 0.00 0.00 44 1008.8
20260502015357 11 100 0.0 0.0 0.00 0.00 0.00 45 1008.8
20260502014550 11 100 0.0 0.0 0.00 0.00 0.00 46 1008.8
20260502014051 11 100 0.0 0.0 0.00 0.00 0.00 44 1008.8
20260502013548 11 100 0.0 0.0 0.00 0.00 0.00 43 1008.8
20260502013048 11 100 0.0 1.6 0.00 0.00 0.00 44 1008.8
20260502012552 11 100 0.0 1.6 0.00 0.00 0.00 45 1008.8
20260502012051 11 100 0.0 1.6 0.00 0.00 0.00 43 1008.7
20260502011548 11 100 0.0 1.6 0.00 0.00 0.00 43 1008.6
20260502011043 11 100 0.0 0.0 0.00 0.00 0.00 43 1008.5
20260502010543 11 100 0.0 0.0 0.00 0.00 0.00 42 1008.5
20260502010044 11 100 0.0 0.0 0.00 0.00 0.00 43 1008.5
20260502005544 11 100 0.0 0.0 0.00 0.00 0.00 45 1008.5
20260502005041 11 100 0.0 0.0 0.00 0.00 0.00 44 1008.5
20260502004607 11 100 0.0 0.0 0.00 0.00 0.00 45 1008.4
20260502004046 11 100 0.0 0.0 0.00 0.00 0.00 43 1008.4
20260502003542 12 100 0.0 0.0 0.00 0.00 0.00 44 1008.3
20260502003044 12 100 0.0 0.0 0.00 0.00 0.00 44 1008.3
20260502002540 12 100 0.0 0.0 0.00 0.00 0.00 42 1008.1
20260502002039 12 100 0.0 0.0 0.00 0.00 0.00 44 1008.0
20260502001539 12 100 0.0 1.6 0.00 0.00 0.00 44 1008.0
20260502001056 13 100 0.0 1.6 0.00 0.00 0.00 43 1007.9